Regional Weather Roundup
Issued by NWS

Home | Current Version | Previous Version | Text Only | Print | Product List | Glossary On
Versions: 1 2 3 4 5 6 7 8 9 10 11 12 13 14 15 16 17 18 19 20 21 22 23 24 25 26 27 28 29 30 31 32 33 34 35 36 37 38 39 40 41 42 43 44 45 46 47 48 49 50
000
ASUS46 KPQR 251110
RWROR

OREGON REGIONAL WEATHER ROUNDUP
NATIONAL WEATHER SERVICE PORTLAND OR
300 AM PST SUN JAN 25 2015

NOTE: "FAIR" INDICATES FEW OR NO CLOUDS BELOW 12,000 FEET WITH
NO SIGNIFICANT WEATHER AND/OR OBSTRUCTIONS TO VISIBILITY.

ORZ001>013-251200-
NORTHWEST OREGON


CITY           SKY/WX    TMP DP  RH WIND       PRES   REMARKS
ASTORIA        FOG       49  48  97 NE3       30.20S VSB 1/4
NEWPORT        PTCLDY    50  48  93 N3        30.21S
PORTLAND       FOG       46  46 100 NW3       30.24S VSB 1/4
VANCOUVER WA   FOG       47  47 100 CALM      30.23F VSB 1/4
SCAPPOOSE      FOG       42  42 100 CALM      30.23S VSB 3/4
HILLSBORO      FOG       43  43 100 CALM      30.23S VSB 1/4
AURORA         FOG       46  46 100 CALM      30.24S VSB 1/4
MCMINNVILLE    FOG       44  43  96 CALM      30.23F VSB 1/4
SALEM          FOG       48  47  96 CALM      30.22S VSB 1/4
CORVALLIS      CLOUDY    45  43  93 CALM      30.23S VSB 1/4
EUGENE         FOG       42  41  96 CALM      30.22F VSB 1/4
$$

ORZ021-028-251200-
SOUTHWEST OREGON


CITY           SKY/WX    TMP DP  RH WIND       PRES   REMARKS
NORTH BEND     PTCLDY    45  45 100 SE5       30.16F
BROOKINGS      CLEAR     51  50  97 N3        30.14F
ROSEBURG       FOG       43  42  97 CALM      30.23S VSB 1/4
SEXTON SUMMIT  CLEAR     53  35  50 SE15      30.27S
MEDFORD        CLEAR     35  33  92 CALM      30.28S
$$

ORZ014>016-041-251200-
COLUMBIA GORGE


CITY           SKY/WX    TMP DP  RH WIND       PRES   REMARKS
TROUTDALE      FOG       47  46  97 CALM      30.22F VSB 1/4
THE DALLES     FOG       46  46 100 CALM      30.25S VSB 1/4
$$

ORZ029>031-041-044-049-050-061>064-502-503-505>511-251200-
EASTERN OREGON


CITY           SKY/WX    TMP DP  RH WIND       PRES   REMARKS
REDMOND        CLOUDY    42  36  79 E8        30.29S
BEND           MOCLDY    41  32  70 SE5       30.31F
PRINEVILLE     CLOUDY    43  37  81 SE3       30.32S
KLAMATH FALLS  CLEAR     29  27  92 CALM      30.38R
LAKEVIEW       CLEAR     28  25  86 N5        30.39F WCI  23
HERMISTON      CLOUDY    37  35  92 N6        30.23F FOG     WCI  32
PENDLETON      CLOUDY    47  41  80 SE7       30.23F
JOHN DAY       MOCLDY    43  39  85 SE7       30.34S
MEACHAM        CLOUDY    37  34  89 CALM      30.32R
LA GRANDE      MOCLDY    43  28  56 S25       30.33F
BAKER CITY     CLOUDY    27  26  96 CALM      30.43R FOG
BURNS          PTCLDY    30  28  92 CALM      30.40S
ROME             N/A     32  27  81 CALM      30.40S
ONTARIO        CLOUDY    31  29  92 NE3       30.51S FOG
$$


USA.gov is the U.S. government's official web portal to all federal, state and local government web resources and services.